[[{"header":{"parameterUnit":"m.s-1","parameterCategory":1,"la1":30.2991,"la2":30.254,"lo1":-89.0895,"lo2":-89.0444,"dy":0.0017,"dx":0.0017,"nx":28,"ny":28,"refTime":"2024-08-02T09:00:00:Z","depth":0,"parameterNumber":2,"parameterNumberName":"U-component_of_WINDS"},"data":[0,0,0,0,0,0,0,0,0,0,0,0,0,0,0,0,0,0,0,0,0,0,0,0,0,0,0,0,0,0,0,0,0,0,0,0,0,0,0,0,0,0,0,0,0,0,0,0,0,0,0,0,0,0,0,0,0,0,1.6583,1.6583,0,1.6524,1.6523,1.6522,1.6394,1.6392,1.6389,1.6387,1.6332,1.6333,1.6334,0,0,0,0,0,0,0,0,0,0,0,0,0,1.6594,1.6595,1.6583,1.6583,1.6582,1.6524,1.6523,1.6522,1.6395,1.6392,1.6388,1.6385,1.6331,1.6332,1.6334,0,0,0,0,0,0,0,0,0,0,0,0,0,1.6568,1.6595,1.6583,1.6511,1.6504,1.6524,1.6523,1.6522,1.6395,1.6391,1.6388,1.6384,1.6331,1.6332,1.6334,1.6421,0,0,1.6338,1.6339,0,0,0,0,0,0,0,0,1.6569,1.6568,1.6522,1.6516,1.6508,1.6462,1.6506,1.6488,1.6396,1.6437,1.6387,1.6382,1.6379,1.6376,1.6374,1.6419,1.6416,1.6338,1.6339,1.634,1.634,0,0,0,0,0,0,0,1.6571,1.6569,1.656,1.6522,1.6513,1.6484,1.6476,1.6503,1.6431,1.6433,1.6424,1.6418,1.6374,1.6373,1.6371,1.6415,1.6338,1.634,1.6341,1.6341,1.6535,1.6539,0,0,0,0,0,0,1.6583,1.6572,1.6562,1.6558,1.653,1.6487,1.6478,1.6481,1.643,1.6418,1.6421,1.6412,1.6372,1.637,1.6369,1.6472,1.634,1.6341,1.6342,1.653,1.6536,1.654,0,0,0,0,0,0,1.6584,1.6583,1.6564,1.6562,1.6558,1.6491,1.6496,1.6482,1.648,1.6421,1.6408,1.6433,1.6369,1.6367,1.641,1.6468,1.6342,1.6343,1.6525,1.6532,1.6538,1.6676,0,0,0,0,0,0,1.6584,1.6584,1.6615,1.6564,1.6558,1.6604,1.6499,1.6484,1.6482,1.647,1.6428,1.6418,1.6366,1.6408,1.6411,1.6468,1.6344,1.652,1.6528,1.6536,1.6666,1.6687,1.6704,0,0,0,0,0,1.6585,1.6656,1.6617,1.6616,1.6595,1.6608,1.6605,1.6542,1.6487,1.6519,1.6482,1.6419,1.646,1.6414,1.6416,1.6474,1.6516,1.6526,1.6535,1.6658,1.6683,1.6704,0,0,0,0,0,0,1.6717,1.6648,1.6604,1.666,1.6641,1.6586,1.6624,1.6569,1.6566,1.6555,1.6478,1.647,1.6525,1.6503,1.6452,1.6558,1.6479,1.6489,1.6571,1.6594,1.6613,1.6619,1.6346,0,0,0,0,0,1.6752,1.6766,1.6706,1.6762,1.6754,1.6691,1.6694,1.6648,1.6625,1.6617,1.6582,1.6565,1.6575,1.6582,1.6587,1.6662,1.6654,1.6703,1.6722,1.6737,1.6749,1.6792,1.6814,1.6572,1.6572,1.6572,0,0,1.6826,1.679,1.6804,1.6788,1.6767,1.6787,1.6685,1.6709,1.6724,1.6621,1.666,1.6635,1.661,1.6671,1.6696,1.6654,1.6814,1.675,1.6763,1.6765,1.6804,1.6827,1.6847,1.6578,1.6577,1.6576,0,0,1.6971,1.6944,1.6989,1.6971,1.694,1.6898,1.691,1.6864,1.6843,1.688,1.6805,1.6822,1.6839,1.6826,1.6822,1.6966,1.691,1.6969,1.7069,1.7112,1.7131,1.7148,1.7204,1.7224,1.698,1.698,1.698,0,1.7068,1.7092,1.702,1.7049,1.7047,1.6953,1.7001,1.6987,1.6961,1.6963,1.6916,1.6937,1.6914,1.6973,1.7008,1.7006,1.702,1.6975,1.7134,1.715,1.7164,1.7217,1.7238,1.6988,1.6987,1.6986,1.6986,0,1.7214,1.7232,1.7273,1.725,1.7251,1.7289,1.7227,1.7237,1.719,1.7155,1.7197,1.7166,1.7165,1.7175,1.7129,1.7229,1.7205,1.7147,1.7066,1.7197,1.7245,1.7264,1.6999,1.6996,1.6994,1.6992,0,0,1.7441,1.7379,1.7396,1.7386,1.7346,1.7361,1.7397,1.7394,1.7407,1.7393,1.7424,1.7442,1.7389,1.7385,1.7337,1.7374,1.7497,1.7312,1.7311,1.7352,1.761,1.7657,1.7681,1.7457,1.7461,1.7464,1.7614,0,1.7581,1.7637,1.7575,1.7646,1.7665,1.7577,1.7609,1.7591,1.7559,1.7572,1.7537,1.7552,1.7479,1.7477,1.7509,1.7475,1.7548,1.7462,1.7491,1.7493,1.7504,1.7705,1.7754,1.7897,1.7631,1.7635,1.7637,0,1.7751,1.7745,1.7818,1.7777,1.7783,1.7813,1.7808,1.782,1.7799,1.7773,1.777,1.7713,1.7749,1.7668,1.772,1.7664,1.7671,1.7657,1.7661,1.7665,1.7576,1.772,1.7941,1.7964,1.7665,1.7663,1.7661,0,1.7916,1.7926,1.7971,1.7965,1.7918,1.7942,1.7924,1.7898,1.7902,1.7898,1.7901,1.7902,1.7905,1.7909,1.7855,1.78,1.7916,1.7829,1.7901,1.7903,1.7932,1.7932,1.8163,1.793,1.7929,1.7929,1.7929,0,1.8081,1.8131,1.8045,1.8074,1.8128,1.8057,1.8113,1.8086,1.8065,1.809,1.8013,1.8039,1.7964,1.7983,1.7942,1.7995,1.7995,1.7979,1.7968,1.7988,1.7991,1.7995,1.7986,1.7935,1.7933,1.7932,1.7931,0,1.8276,1.822,1.8265,1.8217,1.8206,1.8249,1.8209,1.8236,1.8198,1.8231,1.8235,1.8178,1.8197,1.8143,1.8153,1.8125,1.8203,1.8174,1.8211,1.8204,1.828,1.8276,1.8526,1.8557,1.83,1.8302,1.8304,0,1.8387,1.8423,1.8379,1.8389,1.8375,1.8392,1.8396,1.8328,1.8336,1.8316,1.8347,1.8359,1.8365,1.84,1.8361,1.837,1.8344,1.843,1.8345,1.8366,1.8351,1.8352,1.8358,1.845,1.8453,1.8456,1.8458,0,1.8592,1.8563,1.857,1.857,1.8577,1.8573,1.8564,1.8578,1.8505,1.8519,1.8536,1.8541,1.8552,1.8567,1.8568,1.8552,1.8496,1.8484,1.8502,1.8526,1.8548,1.8543,1.8264,1.848,1.8478,1.8476,1.8475,1.8474,1.8752,1.8781,1.8756,1.8768,1.8754,1.8749,1.8773,1.8739,1.8751,1.8754,1.8713,1.8741,1.8722,1.8717,1.8708,1.8731,1.8691,1.8716,1.8723,1.8732,1.8747,1.8541,1.873,1.8729,1.8729,1.8728,1.8728,0,1.8957,1.8937,1.8948,1.8939,1.895,1.8891,1.888,1.8894,1.8918,1.8905,1.8913,1.8936,1.895,1.8913,1.8923,1.895,1.8924,1.8955,1.8955,1.8954,1.8779,1.8765,1.8976,1.8976,1.8976,1.8976,1.8976,1.8976,1.9066,1.9115,1.9083,1.9126,1.9105,1.913,1.913,1.9126,1.9115,1.9143,1.9155,1.9129,1.9108,1.9117,1.9129,1.9118,1.9128,1.917,1.9151,1.8989,1.8965,1.8942,1.8929,1.9171,1.9171,1.9324,1.9325,1.9327]},{"header":{"parameterUnit":"m.s-1","parameterCategory":1,"la1":30.2991,"la2":30.254,"lo1":-89.0895,"lo2":-89.0444,"dy":0.0017,"dx":0.0017,"nx":28,"ny":28,"refTime":"2024-08-02T09:00:00:Z","depth":0,"parameterNumber":3,"parameterNumberName":"V-component_of_WINDS"},"data":[0,0,0,0,0,0,0,0,0,0,0,0,0,0,0,0,0,0,0,0,0,0,0,0,0,0,0,0,0,0,0,0,0,0,0,0,0,0,0,0,0,0,0,0,0,0,0,0,0,0,0,0,0,0,0,0,0,0,-2.2133,-2.2133,0,-2.2081,-2.2081,-2.208,-2.2003,-2.2002,-2.2001,-2.1999,-2.1943,-2.1943,-2.1942,0,0,0,0,0,0,0,0,0,0,0,0,0,-2.216,-2.216,-2.2133,-2.2133,-2.2132,-2.2081,-2.2081,-2.208,-2.2004,-2.2002,-2.2,-2.1999,-2.1943,-2.1943,-2.1942,0,0,0,0,0,0,0,0,0,0,0,0,0,-2.2132,-2.216,-2.2133,-2.2088,-2.2083,-2.2082,-2.2081,-2.208,-2.2004,-2.2002,-2.2,-2.1998,-2.1943,-2.1943,-2.1942,-2.198,0,0,-2.1941,-2.1941,0,0,0,0,0,0,0,0,-2.2134,-2.2131,-2.2095,-2.2091,-2.2086,-2.2047,-2.2069,-2.2046,-2.2004,-2.2034,-2.1999,-2.1997,-2.1979,-2.1975,-2.197,-2.1977,-2.1975,-2.1941,-2.1941,-2.1941,-2.1941,0,0,0,0,0,0,0,-2.2136,-2.2133,-2.2113,-2.2095,-2.2089,-2.2068,-2.2062,-2.2065,-2.2018,-2.2031,-2.2025,-2.2021,-2.1976,-2.1971,-2.1968,-2.1974,-2.1941,-2.1941,-2.194,-2.194,-2.2004,-2.2005,0,0,0,0,0,0,-2.2145,-2.2135,-2.2114,-2.2111,-2.2105,-2.2069,-2.2062,-2.2061,-2.2018,-2.2009,-2.2022,-2.2017,-2.1972,-2.1969,-2.1966,-2.2003,-2.1941,-2.194,-2.194,-2.2002,-2.2004,-2.2006,0,0,0,0,0,0,-2.2146,-2.2144,-2.2116,-2.2121,-2.2116,-2.2071,-2.207,-2.2061,-2.2056,-2.2011,-2.2002,-2.2026,-2.197,-2.1966,-2.1976,-2.2,-2.194,-2.194,-2.1999,-2.2002,-2.2005,-2.2081,0,0,0,0,0,0,-2.2147,-2.2145,-2.2161,-2.2122,-2.2116,-2.213,-2.2072,-2.2062,-2.2056,-2.2049,-2.2012,-2.2004,-2.1969,-2.1977,-2.1976,-2.1999,-2.1939,-2.1997,-2.2001,-2.2004,-2.2076,-2.2086,-2.2095,0,0,0,0,0,-2.2148,-2.2184,-2.2162,-2.216,-2.2135,-2.2131,-2.2128,-2.2087,-2.2058,-2.2072,-2.2042,-2.2005,-2.1998,-2.1979,-2.1976,-2.2,-2.1995,-2.2,-2.2004,-2.2072,-2.2084,-2.2095,0,0,0,0,0,0,-2.2227,-2.2179,-2.2153,-2.2178,-2.2159,-2.2119,-2.2135,-2.2102,-2.209,-2.2084,-2.2033,-2.2025,-2.204,-2.2021,-2.2,-2.2031,-2.1991,-2.1995,-2.2043,-2.2054,-2.2064,-2.2067,-2.1939,0,0,0,0,0,-2.2247,-2.2249,-2.2207,-2.2233,-2.2225,-2.2182,-2.2179,-2.2149,-2.2127,-2.2118,-2.2089,-2.2068,-2.206,-2.2057,-2.2047,-2.2073,-2.2061,-2.2088,-2.2097,-2.2105,-2.2108,-2.2116,-2.2125,-2.202,-2.202,-2.202,0,0,-2.2288,-2.2263,-2.2267,-2.2248,-2.223,-2.2231,-2.2176,-2.218,-2.2179,-2.2118,-2.2125,-2.2103,-2.2075,-2.2092,-2.2098,-2.2076,-2.2135,-2.211,-2.2117,-2.2116,-2.2121,-2.2131,-2.214,-2.2023,-2.2023,-2.2022,0,0,-2.2364,-2.2347,-2.2364,-2.2347,-2.232,-2.2291,-2.2295,-2.2258,-2.2241,-2.2247,-2.22,-2.2197,-2.2187,-2.2167,-2.2156,-2.222,-2.2184,-2.2219,-2.2267,-2.2275,-2.2283,-2.229,-2.2309,-2.2317,-2.2223,-2.2223,-2.2223,0,-2.2419,-2.2421,-2.2378,-2.2384,-2.2375,-2.232,-2.2335,-2.232,-2.2291,-2.2285,-2.2262,-2.2244,-2.2222,-2.2231,-2.2246,-2.224,-2.224,-2.2223,-2.2286,-2.2292,-2.2298,-2.2315,-2.2323,-2.2227,-2.2227,-2.2226,-2.2226,0,-2.2487,-2.2489,-2.2506,-2.248,-2.2473,-2.2484,-2.244,-2.2437,-2.2407,-2.2379,-2.2383,-2.2354,-2.2336,-2.2336,-2.2307,-2.234,-2.2326,-2.2295,-2.2253,-2.2313,-2.2328,-2.2335,-2.2233,-2.2232,-2.223,-2.2229,0,0,-2.2612,-2.256,-2.2567,-2.2552,-2.2516,-2.2515,-2.2522,-2.2505,-2.2502,-2.2483,-2.2485,-2.2475,-2.2444,-2.2432,-2.24,-2.2407,-2.2454,-2.2373,-2.2372,-2.2387,-2.2483,-2.2505,-2.2514,-2.243,-2.2431,-2.2432,-2.2484,0,-2.2679,-2.269,-2.2649,-2.2669,-2.2667,-2.2612,-2.2617,-2.2595,-2.2568,-2.256,-2.253,-2.2522,-2.2485,-2.2476,-2.248,-2.2448,-2.2472,-2.2443,-2.2428,-2.2428,-2.2435,-2.2523,-2.2547,-2.2598,-2.249,-2.2491,-2.2492,0,-2.2759,-2.2744,-2.2764,-2.2723,-2.2721,-2.2727,-2.2705,-2.27,-2.2671,-2.2651,-2.2635,-2.2597,-2.2597,-2.2558,-2.2554,-2.2536,-2.2526,-2.2509,-2.251,-2.2505,-2.2463,-2.2518,-2.2614,-2.262,-2.2502,-2.2501,-2.25,0,-2.2844,-2.2829,-2.2837,-2.2827,-2.2781,-2.2785,-2.2766,-2.2736,-2.2726,-2.2707,-2.2699,-2.268,-2.2669,-2.2653,-2.2609,-2.2586,-2.2609,-2.2568,-2.2589,-2.259,-2.2596,-2.2596,-2.2689,-2.2594,-2.2594,-2.2594,-2.2594,0,-2.2922,-2.2935,-2.2874,-2.288,-2.2891,-2.2843,-2.2855,-2.283,-2.2802,-2.2799,-2.2751,-2.2748,-2.2692,-2.2681,-2.2647,-2.2647,-2.2643,-2.2624,-2.2614,-2.2627,-2.2629,-2.2619,-2.2613,-2.2596,-2.2595,-2.2595,-2.2595,0,-2.3019,-2.2979,-2.2984,-2.294,-2.2929,-2.2939,-2.2899,-2.29,-2.2869,-2.2865,-2.2861,-2.2812,-2.2797,-2.2752,-2.2726,-2.2702,-2.2711,-2.2695,-2.2722,-2.2715,-2.2738,-2.2735,-2.2826,-2.2834,-2.2737,-2.2738,-2.2739,0,-2.307,-2.3079,-2.3035,-2.303,-2.3012,-2.3005,-2.2995,-2.2946,-2.2937,-2.2903,-2.2907,-2.2888,-2.2871,-2.2849,-2.2809,-2.2787,-2.2768,-2.2801,-2.2764,-2.2775,-2.2764,-2.2763,-2.2762,-2.2808,-2.281,-2.2811,-2.2812,0,-2.3164,-2.3143,-2.3132,-2.3112,-2.3101,-2.3083,-2.3062,-2.306,-2.3005,-2.2997,-2.2981,-2.2967,-2.2939,-2.292,-2.2891,-2.2868,-2.2829,-2.2824,-2.2827,-2.2839,-2.2853,-2.2842,-2.2741,-2.2822,-2.2821,-2.282,-2.2819,-2.2819,-2.3238,-2.3241,-2.321,-2.3197,-2.3176,-2.3156,-2.3154,-2.3122,-2.3109,-2.3083,-2.3055,-2.3042,-2.3007,-2.2965,-2.2944,-2.293,-2.291,-2.2916,-2.2917,-2.2918,-2.2923,-2.2857,-2.2925,-2.2924,-2.2924,-2.2924,-2.2924,0,-2.3326,-2.3303,-2.3292,-2.3263,-2.3252,-2.3218,-2.3192,-2.3184,-2.3174,-2.3146,-2.3129,-2.3109,-2.3088,-2.3046,-2.3021,-2.3017,-2.2999,-2.3012,-2.3011,-2.3005,-2.2944,-2.2942,-2.3027,-2.3027,-2.3027,-2.3027,-2.3027,-2.3027,-2.3371,-2.3374,-2.3349,-2.3339,-2.3315,-2.3303,-2.329,-2.327,-2.3247,-2.3227,-2.3211,-2.3183,-2.3148,-2.3119,-2.3097,-2.3085,-2.3076,-2.3095,-2.3077,-2.302,-2.301,-2.3001,-2.2999,-2.3094,-2.3095,-2.3139,-2.3139,-2.3139]}]]